Voltar ao catálogo

GJZ 04

AtivoMilitarLEO
NORAD 62293·PAYLOAD·🇨🇳 China

Lançado Dec 12, 2024 de Jiuquan Satellite Launch Center

Loading…

Próximas Passagens (próximas 24 horas)

TLE

AtualizadoSource: Space-Track

Época: Sep 14, 2026, 13:23 UTC

1 62293U 24238D   26257.55772201 -.00000041  00000-0  81104-4 0  9996
2 62293  59.9159   0.5461 0020928  66.4582 293.8622 13.75207751 88208

Acompanhe GJZ 04 em tempo real com AllMySat

Download on the App Store